Location: Atbuku
(36.4936°N, 30.4362°E)
Time: 04:54:27
(UTC+00:00)

Cosmos 2219 - Pass Details

Date: 11 December 2025
Orbit: 831 x 860 km, 71.1° (Epoch: 13 January)

Event Time Altitude Azimuth Distance (km) Brightness Sun altitude
Rises 16:26:53 0° 343° (NNW) 3,434 6.4 -20.2°
Reaches altitude 10° 16:29:25 10° 349° (N) 2,497 5.6 -20.7°
Maximum altitude 16:35:00 50° 64° (ENE) 1,080 3.3 -21.8°
Enters shadow 16:36:11 43° 102° (ESE) 1,182 3.5 -22.1°
